Вернуться в каталог

CZ-6A DEB

АктивенPO
NORAD 54548·DEBRIS·🇨🇳 China

Запущен Nov 11, 2022 с Taiyuan Satellite Launch Center

Loading…

Ближайшие Пролёты (ближайшие 24 часа)

TLE

СвежийSource: Space-Track

Эпоха: Sep 14, 2026, 02:53 UTC

1 54548U 22151KY  26257.12023179  .00015409  00000-0  19804-2 0  9997
2 54548  98.5873 320.5801 0025899 341.5502  18.4767 14.81028936203224

Отслеживайте CZ-6A DEB в реальном времени с AllMySat

Download on the App Store